This is the latest recevied weather packets stored in our database for station/object KQ4UWH. If no packets are shown the sender has not sent any weather packets the latest 10 day(s).
| Time | Temp. | Humidity | Pressure | Rain* | Wind** | Luminosity | Snow |
|---|---|---|---|---|---|---|---|
| 1777670576 | 17.22° C | 73% | 1239.7 hPa | 0 mm | - | 102 W/m² | - |
| 1777670273 | 17.22° C | 68% | 1239.7 hPa | 0 mm | - | 63 W/m² | - |
| 1777669970 | 17.22° C | 70% | 1239.7 hPa | 0 mm | - | 76 W/m² | - |
| 1777669667 | 17.22° C | 70% | 1239.7 hPa | 0 mm | - | 98 W/m² | - |
| 1777669364 | 17.78° C | 68% | 1239.7 hPa | 0 mm | - | 113 W/m² | - |
| 1777669060 | 17.78° C | 68% | 1239.7 hPa | 0 mm | - | 151 W/m² | - |
| 1777668757 | 17.78° C | 70% | 1239.7 hPa | 0 mm | - | 182 W/m² | - |
| 1777668454 | 17.78° C | 70% | 1239.7 hPa | 0 mm | - | 168 W/m² | - |
| 1777668151 | 17.78° C | 70% | 1239.7 hPa | 0 mm | - | 142 W/m² | - |
| 1777667847 | 17.22° C | 71% | 1239.7 hPa | 0 mm | - | 136 W/m² | - |
| 1777667545 | 17.22° C | 73% | 1239.7 hPa | 0 mm | - | 135 W/m² | - |
| 1777667241 | 17.22° C | 74% | 1239.7 hPa | 0 mm | - | 128 W/m² | - |
| 1777666938 | 17.22° C | 74% | 1239.7 hPa | 0 mm | - | 142 W/m² | - |
| 1777666635 | 17.78° C | 74% | 1239.7 hPa | 0 mm | - | 139 W/m² | - |
| 1777666332 | 17.22° C | 73% | 1239.7 hPa | 0 mm | - | 134 W/m² | - |
| 1777666029 | 17.22° C | 74% | 1239.7 hPa | 0 mm | - | 129 W/m² | - |
| 1777665726 | 17.22° C | 74% | 1239.7 hPa | 0 mm | - | 111 W/m² | - |
| 1777665423 | 17.22° C | 73% | 1239.7 hPa | 0 mm | - | 124 W/m² | - |
| 1777665119 | 17.22° C | 74% | 1239.7 hPa | 0 mm | - | 122 W/m² | - |
| 1777664815 | 17.22° C | 74% | 1239.7 hPa | 0 mm | - | 101 W/m² | - |
| 1777664510 | 16.67° C | 75% | 1239.7 hPa | 0 mm | - | 87 W/m² | - |
| 1777664208 | 16.67° C | 75% | 1239.7 hPa | 0 mm | - | 93 W/m² | - |
| 1777663907 | 17.22° C | 74% | 1239.7 hPa | 0 mm | - | 97 W/m² | - |
| 1777663603 | 16.67° C | 73% | 1239.7 hPa | 0 mm | - | 107 W/m² | - |
| 1777663300 | 16.67° C | 73% | 1239.7 hPa | 0 mm | - | 128 W/m² | - |
* Rain latest hour (hover to see other rain measurements)
** Current wind speed in m/s (hover to see current wind gust speed)